Location: Unspecified
(48.5670°N, 0.0000°E)
Time: 11:51:21
(UTC+00:00)

Vanguard 2 Rocket - Pass Details

Date: 03 September 2019
Orbit: 554 x 3327 km, 32.9° (Epoch: 20 September)

Event Time Altitude Azimuth Distance (km) Brightness Sun altitude
Rises 03:06:59 0° 254° (WSW) 4,325 - -20.4°
Reaches altitude 10° 03:09:45 10° 245° (WSW) 3,672 - -20.0°
Exits shadow 03:13:56 26° 223° (SW) 3,045 8.9 -19.5°
Maximum altitude 03:18:32 35° 185° (S) 3,063 9.2 -18.9°
Drops below altitude 10° 03:32:12 10° 129° (SE) 5,722 11.2 -17.0°
Sets 03:37:53 0° 122° (ESE) 7,039 11.8 -16.3°
